Location: Ferchesar
(52.6477°N, 12.4298°E)
Time: 08:05:34
(UTC+01:00)

Vanguard 1 - Pass Details

Date: 14 December 2021
Orbit: 652 x 3830 km, 34.2° (Epoch: 24 January)

Event Time Altitude Azimuth Distance (km) Brightness Sun altitude
Rises 02:36:57 0° 272° (W) 7,489 - -48.8°
Reaches altitude 10° 02:42:28 10° 264° (W) 6,715 - -48.1°
Maximum altitude 03:01:13 34° 211° (SSW) 5,092 - -45.5°
Exits shadow 03:07:54 29° 184° (S) 5,159 13.4 -44.6°
Drops below altitude 10° 03:18:07 10° 155° (SSE) 6,024 14.1 -43.2°
Sets 03:22:46 0° 147° (SSE) 6,662 14.5 -42.5°
